Home   Weather   Winamac   Past weeks

Flag for USA Past Weather in Winamac, Indiana, USA — Yesterday and Last 2 Weeks

Now
52 °F

Light rain. Fog.


Feels Like: 51 °F
Forecast: 48 / 67 °F
Wind: 5 mph from North

Location: Porter County Municipal Airport

Current Time: Apr 30, 2017 at 6:51:11 pm

Latest Report: Apr 30, 2017 at 6:05 pm


Visibility: 4 mi

Pressure: 29.76 "Hg

Humidity: 93%

Dew Point: 50 °F

Location of WinamacLocation

Past Weather in Winamac — Graph

°F

Winamac Temperature Yesterday

Maximum temperature yesterday: 55 °F (at 12:56 am)
Minimum temperature yesterday: 45 °F (at 4:37 pm)
Average temperature yesterday: 49 °F

High & Low Weather Summary for the Past Weeks

 TemperatureHumidityPressure
High82 °F (Apr 26, 1:56 pm)100% (Apr 20, 2:26 am)30.22 "Hg (Apr 20, 2:26 am)
Low40 °F (Apr 22, 5:56 am)15% (Apr 23, 4:56 pm)29.34 "Hg (Apr 27, 6:56 am)
Average58 °F67%29.93 "Hg
* Reported Apr 15 5:56 pm — Apr 30 5:30 pm, Winamac, Weather by CustomWeather, © 2017

Note: Actual official high and low records may vary slightly from our data, if they occured in-between our weather recording intervals... More about our weather records

Advertising

Winamac Weather History for the Previous 24 Hours

Scroll right to see more
 ConditionsComfort  
Time TempWeatherWind HumidityBarometerVisibility
5:30 pm
Sun, Apr 30
51 °FLight rain. Fog.8 mph96%29.75 "Hg2 mi
4:56 pm52 °FLight rain. Fog.6 mph97%29.77 "Hg2 mi
4:03 pm53 °FLight rain. Fog.6 mph93%29.80 "Hg2 mi
2:56 pm58 °FFog.5 mph93%29.80 "Hg4 mi
2:12 pm57 °FFog.5 mph93%29.81 "Hg4 mi
1:56 pm56 °FFog.5 mph93%29.79 "Hg5 mi
12:56 pm53 °FFog.5 mph96%29.79 "Hg6 mi
12:34 pm52 °FLight rain. Fog.6 mph97%29.79 "Hg2 mi
12:14 pm51 °FMostly cloudy.7 mph96%29.80 "Hg7 mi
12:03 pm51 °FFog.12 mph96%29.78 "Hg4 mi
11:35 am50 °FLight rain. Fog.14 mph96%29.78 "Hg3 mi
10:56 am50 °FRain. Fog.13 mph93%29.78 "Hg1 mi
10:24 am49 °FLight rain. Fog.15 mph93%29.77 "Hg2 mi
9:56 am48 °FLight rain. Fog.16 mph96%29.80 "Hg2 mi
8:56 am48 °FRain. Fog.12 mph93%29.86 "Hg1 mi
8:10 am48 °FLight rain. Fog.10 mph93%29.89 "Hg2 mi
7:56 am48 °FLight rain. Fog.7 mph96%29.91 "Hg3 mi
6:56 am48 °FFog.10 mph93%29.90 "Hg6 mi
5:56 am47 °FLight rain. Fog.14 mph93%29.90 "Hg5 mi
4:56 am47 °FLight rain. Fog.20 mph93%29.91 "Hg6 mi
3:56 am46 °FLight rain. Fog.16 mph93%29.91 "Hg4 mi
2:56 am46 °FLight rain. Overcast.17 mph93%29.93 "Hg7 mi
1:56 am47 °FFog.16 mph90%29.92 "Hg3 mi
12:56 am48 °FOvercast.12 mph89%29.96 "Hg8 mi
11:56 pm
Sat, Apr 29
49 °FOvercast.14 mph90%29.96 "Hg9 mi
11:20 pm49 °FMostly cloudy.20 mph86%29.95 "Hg9 mi
10:56 pm49 °FLight rain. Fog.26 mph90%29.94 "Hg5 mi
10:33 pm49 °FRain. Fog.31 mph93%29.89 "Hg3 mi
10:18 pm50 °FStrong thunderstorms. Fog.29 mph89%29.91 "Hg2 mi
9:56 pm50 °FThunderstorms. Overcast.23 mph89%29.96 "Hg7 mi
9:26 pm50 °FThundershowers. Low clouds.15 mph93%29.98 "Hg8 mi
9:19 pm50 °FThunderstorms. Fog.13 mph96%29.98 "Hg6 mi
8:56 pm48 °FThunderstorms. Fog.13 mph96%30.01 "Hg3 mi
7:56 pm49 °FLight rain. Fog.9 mph93%30.05 "Hg5 mi
7:13 pm49 °FFog.10 mph93%30.05 "Hg5 mi
6:56 pm48 °FFog.8 mph96%30.09 "Hg5 mi
Weather by CustomWeather, © 2017

See weather overviewHow to use our weather pages